• In Uzbekistan
  • List of Countries
  • For 7 days
  • Water Temperature
  • Satellite Maps
  • Weather Map
  • Weather Widgets
  • user-avatar
    Login

    Hourly Weather Ira

    Today, 20 July, Friday

    Time Temperature Precipitation Wind Pressure Humidity
    00:00 +20°C° 0 mm 3 mps 741 mmHg 89%
    01:00 +19°C° 0 mm 3 mps 741 mmHg 90%
    02:00 +19°C° 0 mm 3 mps 741 mmHg 91%
    03:00 +19°C° 0 mm 3 mps 742 mmHg 92%
    04:00 +19°C° 0 mm 3 mps 742 mmHg 91%
    05:00 +20°C° 0 mm 3 mps 742 mmHg 89%
    06:00 +20°C° 0 mm 2 mps 742 mmHg 88%
    07:00 +22°C° 0.1 mm 3 mps 742 mmHg 82%
    08:00 +25°C° 0.1 mm 3 mps 742 mmHg 77%
    09:00 +26°C° 0.1 mm 3 mps 742 mmHg 71%
    10:00 +28°C° 0.2 mm 3 mps 742 mmHg 67%
    11:00 +29°C° 0.2 mm 3 mps 742 mmHg 62%
    12:00 +30°C° 0.2 mm 3 mps 742 mmHg 58%
    13:00 +29°C° 1.3 mm 3 mps 742 mmHg 62%
    14:00 +29°C° 1.3 mm 4 mps 742 mmHg 65%
    15:00 +28°C° 1.3 mm 4 mps 742 mmHg 68%
    16:00 +28°C° 0.6 mm 3 mps 741 mmHg 72%
    17:00 +27°C° 0.6 mm 3 mps 741 mmHg 77%
    18:00 +26°C° 0.6 mm 2 mps 741 mmHg 81%
    19:00 +25°C° 0.2 mm 2 mps 741 mmHg 82%
    20:00 +24°C° 0.2 mm 2 mps 741 mmHg 84%
    21:00 +23°C° 0.2 mm 2 mps 741 mmHg 86%
    22:00 +22°C° 0.1 mm 3 mps 741 mmHg 88%
    23:00 +21°C° 0.1 mm 3 mps 741 mmHg 89%

    Tomorrow, 21 July, Saturday

    Time Temperature Precipitation Wind Pressure Humidity
    00:00 +21°C° 0.1 mm 3 mps 741 mmHg 91%
    01:00 +20°C° 0 mm 3 mps 741 mmHg 92%
    02:00 +20°C° 0 mm 3 mps 741 mmHg 93%
    03:00 +20°C° 0 mm 3 mps 741 mmHg 94%
    04:00 +21°C° 0 mm 3 mps 741 mmHg 93%
    05:00 +21°C° 0 mm 3 mps 741 mmHg 91%
    06:00 +21°C° 0 mm 3 mps 741 mmHg 90%
    07:00 +24°C° 0.2 mm 3 mps 741 mmHg 85%
    08:00 +25°C° 0.2 mm 3 mps 741 mmHg 81%
    09:00 +27°C° 0.2 mm 4 mps 741 mmHg 76%
    10:00 +27°C° 0.6 mm 4 mps 740 mmHg 73%
    11:00 +28°C° 0.6 mm 4 mps 740 mmHg 70%
    12:00 +29°C° 0.6 mm 5 mps 740 mmHg 67%
    13:00 +29°C° 0.9 mm 4 mps 740 mmHg 68%
    14:00 +29°C° 0.9 mm 4 mps 740 mmHg 69%
    15:00 +29°C° 0.9 mm 4 mps 740 mmHg 69%
    16:00 +29°C° 0.5 mm 3 mps 740 mmHg 72%
    17:00 +28°C° 0.5 mm 3 mps 740 mmHg 75%
    18:00 +28°C° 0.5 mm 3 mps 740 mmHg 78%
    19:00 +26°C° 0 mm 3 mps 740 mmHg 82%
    20:00 +25°C° 0 mm 3 mps 741 mmHg 86%
    21:00 +24°C° 0 mm 3 mps 741 mmHg 89%
    22:00 +22°C° 0 mm 3 mps 741 mmHg 91%
    23:00 +22°C° 0 mm 3 mps 741 mmHg 92%

    Day after tomorrow, 22 July, Sunday

    Time Temperature Precipitation Wind Pressure Humidity
    00:00 +21°C° 0 mm 3 mps 741 mmHg 93%
    01:00 +21°C° 0 mm 3 mps 741 mmHg 94%
    02:00 +20°C° 0 mm 3 mps 741 mmHg 95%
    03:00 +20°C° 0 mm 3 mps 741 mmHg 95%
    04:00 +20°C° 0 mm 3 mps 741 mmHg 94%
    05:00 +21°C° 0 mm 3 mps 741 mmHg 93%
    06:00 +21°C° 0 mm 3 mps 741 mmHg 92%
    07:00 +22°C° 0 mm 3 mps 741 mmHg 89%
    08:00 +23°C° 0 mm 4 mps 742 mmHg 86%
    09:00 +26°C° 0 mm 4 mps 742 mmHg 82%
    10:00 +26°C° 0.4 mm 4 mps 742 mmHg 79%
    11:00 +27°C° 0.4 mm 4 mps 742 mmHg 77%
    12:00 +28°C° 0.4 mm 4 mps 742 mmHg 74%
    13:00 +27°C° 0.7 mm 4 mps 742 mmHg 75%
    14:00 +27°C° 0.7 mm 5 mps 742 mmHg 76%
    15:00 +27°C° 0.7 mm 5 mps 742 mmHg 76%
    16:00 +27°C° 0.2 mm 5 mps 742 mmHg 78%
    17:00 +27°C° 0.2 mm 4 mps 742 mmHg 79%
    18:00 +26°C° 0.2 mm 4 mps 742 mmHg 81%
    19:00 +25°C° 0.1 mm 4 mps 742 mmHg 84%
    20:00 +23°C° 0.1 mm 4 mps 742 mmHg 88%
    21:00 +22°C° 0.1 mm 4 mps 742 mmHg 91%
    22:00 +22°C° 0 mm 4 mps 742 mmHg 92%
    23:00 +21°C° 0 mm 3 mps 742 mmHg 93%

    23 July, Monday

    Time Temperature Precipitation Wind Pressure Humidity
    00:00 +21°C° 0 mm 3 mps 742 mmHg 94%
    01:00 +21°C° 0.1 mm 3 mps 742 mmHg 95%
    02:00 +21°C° 0.1 mm 3 mps 742 mmHg 95%
    03:00 +20°C° 0.1 mm 3 mps 742 mmHg 95%
    04:00 +21°C° 0 mm 3 mps 742 mmHg 94%
    05:00 +21°C° 0 mm 3 mps 742 mmHg 93%
    06:00 +21°C° 0 mm 3 mps 743 mmHg 92%
    07:00 +23°C° 0.3 mm 4 mps 743 mmHg 88%
    08:00 +25°C° 0.3 mm 4 mps 743 mmHg 83%
    09:00 +26°C° 0.3 mm 4 mps 743 mmHg 79%
    10:00 +27°C° 2.3 mm 4 mps 743 mmHg 78%
    11:00 +27°C° 2.3 mm 4 mps 743 mmHg 78%
    12:00 +27°C° 2.3 mm 4 mps 743 mmHg 77%
    13:00 +27°C° 1.2 mm 4 mps 743 mmHg 76%
    14:00 +27°C° 1.2 mm 4 mps 743 mmHg 76%
    15:00 +27°C° 1.2 mm 4 mps 743 mmHg 75%
    16:00 +27°C° 0.5 mm 4 mps 744 mmHg 78%
    17:00 +26°C° 0.5 mm 4 mps 744 mmHg 80%
    18:00 +26°C° 0.5 mm 4 mps 744 mmHg 83%
    19:00 +25°C° 0.2 mm 4 mps 744 mmHg 85%
    20:00 +23°C° 0.2 mm 4 mps 744 mmHg 88%
    21:00 +22°C° 0.2 mm 4 mps 745 mmHg 90%
    22:00 +22°C° 0 mm 4 mps 745 mmHg 91%
    23:00 +21°C° 0 mm 3 mps 745 mmHg 92%

    24 July, Tuesday

    Time Temperature Precipitation Wind Pressure Humidity
    00:00 +21°C° 0 mm 3 mps 745 mmHg 93%
    01:00 +20°C° 0.1 mm 3 mps 745 mmHg 94%
    02:00 +20°C° 0.1 mm 3 mps 745 mmHg 94%
    03:00 +20°C° 0.1 mm 3 mps 745 mmHg 95%
    04:00 +20°C° 0 mm 3 mps 745 mmHg 94%
    05:00 +20°C° 0 mm 3 mps 745 mmHg 93%
    06:00 +21°C° 0 mm 3 mps 746 mmHg 92%
    07:00 +22°C° 0 mm 4 mps 746 mmHg 88%
    08:00 +23°C° 0 mm 4 mps 746 mmHg 84%
    09:00 +25°C° 0 mm 4 mps 746 mmHg 80%
    10:00 +26°C° 1.2 mm 4 mps 746 mmHg 77%
    11:00 +27°C° 1.2 mm 4 mps 746 mmHg 74%
    12:00 +28°C° 1.2 mm 5 mps 746 mmHg 71%
    13:00 +28°C° 1.3 mm 4 mps 747 mmHg 73%
    14:00 +27°C° 1.3 mm 4 mps 747 mmHg 74%
    15:00 +27°C° 1.3 mm 4 mps 747 mmHg 76%
    16:00 +27°C° 0.4 mm 4 mps 747 mmHg 76%
    17:00 +26°C° 0.4 mm 3 mps 747 mmHg 77%
    18:00 +26°C° 0.4 mm 3 mps 747 mmHg 78%
    19:00 +25°C° 0 mm 3 mps 748 mmHg 78%
    20:00 +24°C° 0 mm 3 mps 748 mmHg 79%
    21:00 +22°C° 0 mm 3 mps 748 mmHg 79%
    22:00 +21°C° 0 mm 3 mps 748 mmHg 76%
    23:00 +21°C° 0 mm 3 mps 748 mmHg 73%

    25 July, Wednesday

    Time Temperature Precipitation Wind Pressure Humidity
    00:00 +21°C° 0 mm 4 mps 748 mmHg 70%
    01:00 +21°C° 0 mm 4 mps 748 mmHg 67%
    02:00 +21°C° 0 mm 4 mps 748 mmHg 64%
    03:00 +20°C° 0 mm 4 mps 748 mmHg 60%
    04:00 +20°C° 0.1 mm 4 mps 748 mmHg 64%
    05:00 +19°C° 0.1 mm 4 mps 748 mmHg 67%
    06:00 +19°C° 0.1 mm 5 mps 748 mmHg 70%
    07:00 +19°C° 0.1 mm 5 mps 748 mmHg 71%
    08:00 +19°C° 0.1 mm 6 mps 748 mmHg 71%
    09:00 +18°C° 0.1 mm 7 mps 748 mmHg 72%
    10:00 +20°C° 0 mm 7 mps 748 mmHg 71%
    11:00 +21°C° 0 mm 7 mps 748 mmHg 70%
    12:00 +22°C° 0 mm 7 mps 749 mmHg 68%
    13:00 +22°C° 0 mm 7 mps 749 mmHg 68%
    14:00 +23°C° 0 mm 7 mps 749 mmHg 67%
    15:00 +24°C° 0 mm 7 mps 749 mmHg 67%
    16:00 +24°C° 0 mm 7 mps 749 mmHg 68%
    17:00 +23°C° 0 mm 6 mps 749 mmHg 69%
    18:00 +23°C° 0 mm 6 mps 749 mmHg 70%
    19:00 +22°C° 0 mm 6 mps 749 mmHg 68%
    20:00 +21°C° 0 mm 5 mps 749 mmHg 66%
    21:00 +20°C° 0 mm 5 mps 750 mmHg 65%
    22:00 +20°C° 0 mm 5 mps 750 mmHg 62%
    23:00 +20°C° 0 mm 5 mps 750 mmHg 60%
    Show more